Weather in Yanoshi

Ukraine / Zakarpattia District     48°15′11″N   22°37′35″E
temp.,
°C
wind,
m/s
gust,
m/s
humid.,
%
clouds,
%
prec.,
mm/h
press.,
hPa
HPBL,
m
21 january, fri
fri2123:00−4wnw38814 0.0 1016134
02:00−7ene00915 0.0 101710
05:00−8ese22935 0.0 101829
08:00−8ese229467 0.0 101953
11:00−6e228817 0.0 1020146
14:00−3wnw25759 0.0 1020443
17:00−5ssw118992 0.0 101911
20:00−5s229292 0.1 101920
22 january, sat
sat2223:00−6sse119277 0.0 102023
02:00−7e119699 0.0 101916
05:00−8e119698 0.0 101928
08:00−8e229586 0.0 101939
11:00−6e1188100 0.0 1020149
14:00−3wnw368487 0.0 1020522
17:00−2nnw610838 0.1 1021362
20:00−7n11945 0.1 102419
23 january, sun
sun2323:00−8n12945 0.0 102545
02:00−9nne12945 0.0 102670
05:00−10ene11949 0.0 102621
08:00−10ene119467 0.0 102623
11:00−6nnw12885 0.0 1027143
14:000nw4772100 0.0 1026930
17:00−4nnw37845 0.0 102899
20:00−7n36865 0.0 1030101
24 january, mon
mon2423:00−8n35865 0.0 103280
02:00−9nne23875 0.0 103349
05:00−10ne22875 0.0 103442
08:00−11ne22855 0.0 103552
11:00−8ene23730 0.0 1037181
14:00−5se11704 0.0 1036289
17:00−7s00865 0.0 103610
20:00−10ene11935 0.0 103711
25 january, tue
tue2523:00−10ene11945 0.0 103818
02:00−11ene11935 0.0 103818
05:00−12e11915 0.0 103722
08:00−13e229045 0.0 103843
11:00−9ese2283100 0.0 1037156
14:00−7sse217941 0.0 1035283
17:00−7ese2286100 0.0 103471
20:00−7e1291100 0.0 103476